Home > Weather > Le Mans > Past weeks

Flag for France Past Weather in Le Mans, Pays de la Loire, France — Yesterday and Last 2 Weeks

Now
68 °F

More clouds than sun.


Feels Like: 68 °F
Forecast: 60 / 77 °F
Wind: 7 mph from West

Location: Le Mans Airport

Current Time: Aug 28, 2016 at 10:55:03 AM

Latest Report: Aug 28, 2016 at 10:00 AM


Visibility: N/A

Pressure: 30.07 "Hg

Humidity: 78%

Dew Point: 61 °F

Location of Le MansLocation

Past Weather in Le Mans — Graph

°F

Le Mans Temperature Yesterday

Maximum temperature yesterday: 95 °F (at 5:00 PM)
Minimum temperature yesterday: 64 °F (at 5:30 AM)
Average temperature yesterday: 80 °F

High & Low Weather Summary for the Past Weeks

 TemperatureHumidityPressure
High99 °F (Aug 24, 5:00 PM)100% (Aug 20, 4:30 AM)30.36 "Hg (Aug 20, 4:30 AM)
Low52 °F (Aug 22, 7:30 AM)22% (Aug 13, 4:00 PM)29.80 "Hg (Aug 17, 5:30 PM)
Average73 °F61%30.04 "Hg
* Reported Aug 13 9:00 AM — Aug 28 9:30 AM, Le Mans, Weather by CustomWeather, © 2016

Note: Actual official high and low records may vary slightly from our data, if they occured in-between our weather recording intervals... More about our weather records

Advertising

Le Mans Weather History for the Previous 24 Hours

Scroll right to see more
 ConditionsComfort  
Time TempWeatherWind HumidityBarometerVisibility
9:30 AM
Sun, Aug 28
64 °FCloudy.5 mph83%30.07 "HgN/A
9:00 AM64 °FMostly cloudy.6 mph83%30.07 "HgN/A
8:30 AM63 °FMore clouds than sun.5 mph88%30.07 "HgN/A
8:00 AM63 °FOvercast.6 mph88%30.04 "HgN/A
7:30 AM63 °FPassing clouds.5 mph88%30.04 "HgN/A
7:00 AM63 °FPassing clouds.5 mph83%30.04 "HgN/A
6:30 AM63 °FPassing clouds.3 mph88%30.04 "HgN/A
6:00 AM63 °FPassing clouds.6 mph88%30.04 "HgN/A
5:30 AM64 °FPassing clouds.6 mph78%30.04 "HgN/A
5:00 AM64 °FPartly cloudy.7 mph83%30.01 "HgN/A
4:30 AM66 °FMostly cloudy.6 mph78%30.01 "HgN/A
4:00 AM66 °FOvercast.7 mph78%30.01 "HgN/A
3:30 AM66 °FPassing clouds.8 mph78%30.01 "HgN/A
3:00 AM68 °FPassing clouds.7 mph78%30.01 "HgN/A
2:30 AM68 °FPassing clouds.8 mph78%30.01 "HgN/A
2:00 AM70 °FPassing clouds.9 mph73%30.01 "HgN/A
1:30 AM72 °FPassing clouds.10 mph69%29.98 "HgN/A
1:00 AM73 °FPassing clouds.6 mph69%29.98 "HgN/A
12:30 AM75 °FPassing clouds.6 mph65%29.98 "HgN/A
12:00 AM77 °FPassing clouds.5 mph61%29.98 "HgN/A
11:30 PM
Sat, Aug 27
79 °FPassing clouds.6 mph58%29.98 "HgN/A
11:00 PM81 °FPassing clouds.8 mph58%29.95 "HgN/A
10:30 PM81 °FClear.5 mph62%29.95 "Hg10 mi
10:00 PM79 °FClear.3 mph70%29.95 "Hg10 mi
9:30 PM82 °FSunny.No wind58%29.95 "Hg10 mi
9:00 PM84 °FSunny.2 mph55%29.92 "Hg10 mi
8:30 PM90 °FSunny.2 mph43%29.92 "Hg10 mi
8:00 PM91 °FSunny.3 mph38%29.92 "Hg10 mi
7:30 PM93 °FPassing clouds.5 mph36%29.92 "HgN/A
7:00 PM93 °FPassing clouds.7 mph34%29.92 "HgN/A
6:30 PM93 °FPassing clouds.7 mph36%29.92 "HgN/A
6:00 PM95 °FPassing clouds.6 mph34%29.95 "HgN/A
5:30 PM93 °FPassing clouds.8 mph36%29.95 "HgN/A
5:00 PM95 °FPassing clouds.7 mph32%29.95 "HgN/A
4:30 PM93 °FPassing clouds.8 mph36%29.95 "HgN/A
4:00 PM93 °FPassing clouds.7 mph36%29.98 "HgN/A
3:30 PM93 °FPassing clouds.9 mph36%29.98 "HgN/A
3:00 PM91 °FPassing clouds.8 mph38%29.98 "HgN/A
2:30 PM90 °FPassing clouds.8 mph43%29.98 "HgN/A
2:00 PM91 °FPassing clouds.12 mph41%29.98 "HgN/A
1:30 PM91 °FPassing clouds.8 mph41%29.98 "HgN/A
1:00 PM90 °FPassing clouds.9 mph43%29.98 "HgN/A
12:30 PM88 °FPassing clouds.10 mph43%29.98 "HgN/A
12:00 PM86 °FPassing clouds.8 mph46%30.01 "HgN/A
11:30 AM84 °FPassing clouds.7 mph48%30.01 "HgN/A
11:00 AM82 °FPassing clouds.7 mph51%30.01 "HgN/A
10:30 AM79 °FPassing clouds.7 mph61%30.01 "HgN/A
10:00 AM77 °FPassing clouds.5 mph65%30.01 "HgN/A
Weather by CustomWeather, © 2016

See weather overviewHow to use our weather pages